Wind_Gust
16 16 16 15 14 14 16 15 15 16 14 13 14 14 13 14 15 15 15 15 14 9 12 12 11 9 10 10 11 11 12 12 16 17 17 19 23 21 24 29 29 25 22 22 21 21 23 26 28 30 28 27 27 27 26 25 23 23 22 23 24 23 24 24 27 26 23 21 22 22 19 16 18 18 18 18 18 22 17 19 19 19 21 24 24
17 16 15 15 15 15 15 15 15 15 15 14 13 13 12 12 12 14 15 16 15 15 15 15 12 12 11 12 12 12 11 11 12 18 18 18 22 24 25 29 30 27 28 24 28 21 20 22 28 32 34 32 28 29 29 28 25 24 23 23 24 24 22 26 25 26 24 19 20 20 21 19 22 16 18 18 19 20 21 20 20 21 22 22 24
17 16 15 15 15 15 15 15 15 15 15 14 13 13 12 11 11 12 14 15 16 16 15 15 16 15 14 14 15 14 13 13 12 13 17 19 20 19 17 20 21 22 25 27 26 22 22 21 22 26 27 25 22 26 26 27 27 24 26 24 23 23 22 23 25 26 23 23 19 21 20 20 20 22 19 19 18 21 22 21 22 22 21 21 23
17 16 16 16 15 15 15 14 14 15 14 14 15 14 15 13 12 11 12 12 14 14 16 17 17 17 17 15 15 15 17 16 13 12 18 21 20 20 18 21 23 21 26 28 23 22 23 23 22 22 24 26 23 24 23 24 24 26 24 24 23 23 22 22 24 25 24 26 21 23 21 20 22 21 20 19 21 21 22 22 22 21 21 23 23
17 17 15 15 15 15 14 14 15 16 15 15 14 15 13 13 12 12 11 12 12 13 14 16 18 19 19 16 16 17 16 16 16 14 14 14 16 17 19 18 18 19 25 26 22 25 22 23 23 22 21 22 23 22 22 23 27 25 24 24 24 23 23 23 23 23 24 25 24 22 21 21 20 19 20 23 22 23 22 24 22 23 20 19 19
17 16 16 15 15 13 14 14 15 16 17 16 14 14 14 13 13 12 12 13 13 14 14 15 16 18 18 18 17 17 17 16 16 15 15 15 15 16 20 20 19 18 18 21 21 22 22 22 22 22 21 23 23 24 22 23 24 25 24 24 24 24 24 24 23 23 25 25 26 29 24 25 22 21 20 21 22 23 23 23 21 20 22 22 23
17 15 16 14 14 14 14 14 15 14 16 15 14 15 13 13 13 14 13 14 15 15 14 15 16 16 17 16 17 17 17 16 16 18 19 20 20 20 18 18 19 18 17 20 20 21 21 22 25 27 28 25 23 22 21 22 24 23 24 25 25 24 23 23 25 24 24 25 25 24 26 23 22 24 25 25 24 23 23 23 25 23 21 22 22
15 15 14 14 14 14 14 14 13 14 14 15 15 12 12 13 14 14 16 15 14 14 16 15 14 15 15 16 16 17 19 21 21 20 21 21 20 20 20 20 20 21 19 19 19 21 21 21 23 23 24 22 23 22 22 24 22 23 24 24 24 24 24 25 24 25 25 25 25 24 25 24 23 24 29 29 28 26 27 26 25 24 26 25 24
16 15 15 14 14 13 13 12 13 13 14 15 15 14 14 14 13 14 14 14 14 15 15 15 15 17 16 15 16 16 19 18 18 20 22 24 24 23 23 23 22 22 22 22 22 21 20 20 22 21 21 17 14 13 18 14 18 23 22 23 22 24 23 23 23 24 24 25 25 24 23 23 25 23 24 25 27 28 24 25 28 25 25 26 25
16 16 15 14 14 14 14 12 13 13 14 14 14 16 16 14 14 13 13 14 14 14 15 16 16 17 16 15 15 17 17 17 19 17 14 14 16 20 24 23 23 23 23 23 22 22 21 20 21 17 14 11 12 15 15 12 14 16 21 18 19 24 24 25 25 25 22 23 24 24 25 24 24 23 24 24 24 24 24 24 27 27 25 26 26
16 16 15 14 14 13 13 13 13 15 14 14 14 16 16 15 14 14 14 13 14 14 14 15 16 18 17 16 16 17 18 18 19 16 15 15 16 17 18 20 22 22 22 23 24 23 22 23 21 18 15 12 17 13 14 12 13 14 15 15 13 21 20 22 23 23 24 29 29 28 31 27 23 22 21 23 25 25 25 25 27 27 28 27 29
16 16 15 14 14 14 14 14 14 14 14 15 16 16 15 14 15 14 14 14 14 13 13 14 16 18 18 18 19 18 17 16 18 20 18 16 13 16 18 19 20 21 22 24 24 22 22 22 21 21 20 20 20 19 16 16 17 16 16 16 16 17 17 22 23 24 23 25 25 25 25 25 25 23 22 24 25 26 26 27 26 26 27 28 28
16 15 15 14 14 14 14 14 14 14 15 15 16 15 15 16 16 15 14 13 13 13 14 14 15 16 18 18 18 18 17 16 17 19 19 21 17 15 19 19 21 20 22 22 22 22 21 20 20 19 20 14 19 20 20 18 15 20 18 19 19 18 19 19 17 21 24 26 26 27 28 25 25 24 22 25 24 26 28 31 27 27 27 28 28
16 15 15 14 14 14 14 13 13 14 15 16 16 15 15 16 15 14 13 13 13 13 13 13 14 15 16 16 17 18 19 15 16 18 18 19 18 14 18 20 21 21 20 20 21 20 21 21 21 21 20 18 18 17 17 20 20 18 16 17 20 20 18 21 21 21 19 24 27 31 27 26 29 23 23 22 24 26 28 30 25 28 26 29 25
15 15 14 14 13 13 14 14 14 15 16 16 15 15 16 16 15 14 13 12 13 14 13 13 13 13 13 14 15 17 18 14 15 16 17 18 19 13 16 19 21 19 18 18 20 20 19 19 19 21 21 20 20 19 21 20 21 22 21 21 22 23 23 23 23 22 21 23 28 30 31 29 28 28 25 25 24 26 27 26 27 23 26 28 30
16 15 14 13 13 13 13 14 14 15 14 14 15 16 16 15 15 13 13 12 11 11 11 11 12 13 12 11 12 14 17 13 15 16 17 19 19 18 18 18 18 17 17 17 18 18 18 19 20 21 20 21 19 20 18 19 22 23 24 23 23 23 26 16 15 19 25 25 26 29 30 29 19 25 23 25 26 24 24 25 23 22 27 31 31
16 14 13 14 13 13 13 13 13 13 15 15 16 16 15 15 14 13 12 12 11 11 11 10 11 12 12 12 11 12 14 14 15 16 17 19 15 16 14 14 15 15 15 15 17 17 18 19 20 20 20 21 20 20 19 15 21 26 26 25 25 24 25 23 15 18 22 21 21 20 21 20 20 21 22 25 23 19 25 30 30 27 29 31 30
16 14 13 13 12 11 11 13 13 14 15 16 17 16 15 14 14 13 12 12 12 11 10 11 11 12 13 13 13 11 14 14 14 15 16 18 18 18 16 16 15 16 16 15 16 17 24 30 22 21 21 22 17 18 19 15 19 25 26 26 27 27 26 24 24 21 18 22 23 24 23 23 23 23 23 23 22 15 24 35 30 29 33 33 37
14 15 14 14 13 12 12 12 13 13 14 15 15 16 17 16 15 13 12 11 11 11 12 11 10 11 11 11 10 11 12 14 13 12 14 16 21 19 18 16 17 16 15 15 14 16 17 21 26 22 19 20 22 19 17 15 18 21 23 25 27 27 25 24 26 26 24 21 21 22 24 21 25 25 24 23 23 18 25 32 33 35 38 37 36
13 12 11 11 12 12 11 11 12 12 13 14 15 15 15 16 16 14 12 14 14 13 11 10 10 11 10 11 12 12 12 13 14 10 12 15 17 22 16 16 17 16 16 17 16 15 15 17 20 21 20 20 19 18 16 16 17 22 24 26 25 27 24 24 24 25 25 26 27 24 24 26 28 27 26 26 26 26 27 30 33 37 38 38 37
13 13 12 12 12 12 12 12 12 11 12 12 13 13 14 15 15 15 14 12 12 12 11 10 10 10 10 11 11 11 12 14 14 10 10 11 12 14 16 15 15 16 16 16 16 15 15 16 18 22 19 17 15 15 14 13 10 18 21 24 22 20 22 24 25 19 25 23 24 27 29 27 28 28 27 28 29 28 27 27 32 36 39 39 40
13 14 15 13 13 12 12 12 11 11 12 11 12 13 13 13 14 14 13 11 11 11 11 10 10 11 10 10 11 12 12 12 15 11 10 10 8 6 15 15 16 17 16 16 17 16 18 20 22 23 24 22 17 16 15 13 11 18 20 13 18 19 24 24 26 26 27 28 30 29 27 27 29 31 31 31 31 28 28 29 28 32 39 39 38
14 15 15 15 13 12 12 11 11 11 11 12 13 14 14 14 14 13 13 12 12 11 11 10 11 11 11 12 12 15 16 15 8 14 10 9 9 7 5 11 7 15 15 16 15 16 17 18 19 20 21 20 18 17 17 17 15 19 14 14 14 15 15 21 21 25 27 27 29 30 29 29 28 28 28 29 28 27 27 26 29 31 30 32 34
13 13 13 13 13 12 12 11 11 11 12 13 14 15 16 15 15 16 14 14 13 13 13 12 11 12 12 13 12 14 16 18 14 17 13 10 11 9 8 8 8 13 14 13 14 15 16 17 18 17 18 18 17 15 15 13 17 14 15 17 17 15 19 20 19 20 20 23 26 28 29 29 29 30 29 28 29 28 29 26 27 28 31 32 30
12 12 13 13 13 13 13 14 15 13 12 13 14 15 14 15 15 15 14 15 15 15 15 16 15 14 13 13 13 14 15 18 18 14 13 13 12 12 10 8 8 9 14 12 13 14 11 12 14 14 14 13 13 11 10 10 11 13 14 15 14 15 15 17 19 18 20 24 27 28 30 29 29 30 30 30 27 28 28 28 28 27 25 26 27
11 12 11 11 12 12 14 11 12 13 13 12 12 14 15 16 18 17 16 15 15 14 15 15 16 16 16 15 16 16 16 17 18 19 14 13 12 14 11 8 11 15 14 13 9 11 9 11 13 14 11 11 14 15 14 15 11 11 13 12 13 14 14 15 16 18 18 20 22 25 28 28 30 30 27 28 30 29 28 30 29 29 26 26 28
10 11 10 9 10 11 12 14 12 12 12 12 13 14 15 15 17 18 18 18 16 16 16 15 15 16 15 14 14 15 16 17 20 21 22 22 22 20 20 18 15 11 15 16 12 13 16 16 13 11 10 8 10 9 7 9 14 16 16 16 16 16 15 15 16 19 19 20 21 22 24 26 26 26 27 27 28 28 27 28 30 30 28 29 30
12 10 9 8 10 9 9 5 11 12 13 15 16 15 15 15 17 19 20 20 19 17 17 16 16 16 17 17 16 16 17 19 22 24 23 24 23 23 21 20 20 20 19 17 19 21 16 11 14 16 15 15 16 16 16 16 17 17 18 16 16 16 14 13 10 15 17 20 20 21 22 25 27 28 27 27 29 29 27 29 30 30 30 34 37
12 8 10 8 8 8 8 10 11 10 14 14 16 18 17 17 16 17 18 18 18 18 17 16 16 16 16 19 18 18 18 21 22 12 21 12 19 21 22 22 22 19 14 15 21 24 19 18 20 21 22 21 20 21 20 20 20 20 20 20 19 19 18 18 19 18 18 17 18 18 19 21 23 24 26 26 27 28 29 31 29 31 31 31 34
10 10 9 8 9 8 8 8 8 8 11 16 17 16 7 8 12 16 15 8 5 6 8 16 17 17 15 15 17 18 18 19 11 13 14 13 12 11 11 13 13 17 17 23 22 19 20 21 22 23 22 24 24 23 23 22 22 21 21 15 20 21 19 18 18 18 17 16 17 17 17 17 18 19 20 22 25 24 24 19 27 25 27 26 30
12 10 11 10 13 12 9 8 9 8 9 13 18 18 17 13 11 12 9 7 5 5 5 4 5 8 15 15 13 10 8 6 8 11 12 12 13 13 14 16 17 18 18 20 18 19 20 22 21 22 21 22 23 23 23 23 22 22 22 21 21 21 20 20 20 18 17 17 16 17 17 17 18 18 19 19 21 22 22 21 24 24 21 23 27
14 10 16 14 13 10 10 9 8 7 8 9 15 17 18 17 15 6 8 10 10 8 7 6 7 7 6 8 12 13 10 10 12 11 12 12 12 13 14 16 18 17 18 15 14 16 19 18 20 19 20 20 22 21 22 22 23 22 22 21 22 21 21 21 21 19 19 18 18 17 18 19 20 20 20 19 20 20 21 21 20 19 19 19 18
10 12 9 9 11 11 11 7 8 8 9 8 7 10 17 18 18 18 15 8 10 11 9 8 7 6 7 5 5 3 6 9 12 11 12 12 13 12 13 15 17 19 18 16 18 18 19 18 18 18 18 18 18 19 19 19 19 19 20 21 21 21 20 20 18 18 17 18 18 18 19 19 19 19 17 18 20 21 21 21 20 19 19 20 19
10 11 10 10 11 11 9 8 7 7 7 8 10 10 10 10 11 14 18 19 17 10 8 10 10 11 9 9 7 7 8 9 11 11 12 13 13 12 9 15 14 18 16 19 19 19 18 18 17 17 17 16 16 15 16 16 16 17 17 17 18 19 19 19 19 20 18 18 18 17 17 18 19 20 20 20 20 20 20 21 22 22 22 21 21
12 11 7 8 14 11 9 7 8 8 6 7 10 10 9 7 9 9 12 13 15 17 18 17 13 13 14 11 8 9 10 11 12 12 14 15 17 17 17 17 15 14 16 16 16 16 17 16 16 16 16 16 16 15 15 14 15 15 15 16 17 17 18 19 19 19 19 19 18 18 18 18 19 19 19 20 21 21 20 20 20 20 21 22 23
12 12 15 14 14 13 11 9 7 7 9 7 7 8 8 8 9 7 8 9 9 12 16 16 17 13 18 13 12 11 11 12 12 13 14 15 17 17 17 16 14 14 15 16 15 14 13 15 15 14 15 15 16 16 16 16 15 15 15 16 14 15 16 17 17 19 18 18 18 19 17 19 19 19 19 18 17 19 19 20 20 19 19 21 23
13 12 13 13 13 13 11 7 9 11 7 9 7 10 8 7 8 9 8 8 8 8 9 15 16 19 14 15 15 13 15 13 14 14 14 14 16 18 17 15 15 14 14 14 15 14 14 14 14 15 15 15 16 16 16 16 15 15 10 14 15 14 16 15 14 12 16 16 18 18 18 18 19 17 20 18 16 18 19 20 19 17 19 15 12
13 12 11 10 12 10 10 11 12 8 12 13 12 10 9 9 8 8 8 7 9 10 9 13 10 16 17 16 16 13 14 14 14 12 14 14 18 15 13 12 13 13 14 13 14 14 14 13 13 14 14 14 15 16 16 15 15 15 16 15 16 14 8 13 10 14 15 16 16 17 15 16 18 18 14 15 16 17 17 18 20 19 18 17 16
16 11 9 6 8 12 12 13 12 13 12 13 13 10 9 9 9 10 10 9 11 10 8 8 8 11 13 13 13 13 15 16 12 13 12 12 12 12 12 12 12 13 13 13 12 13 14 13 13 14 14 14 14 15 15 15 15 16 15 15 15 16 16 16 15 16 14 15 13 14 14 15 15 15 15 15 14 15 18 18 18 19 20 18 19
15 17 13 8 13 15 14 11 11 11 11 12 12 11 12 12 12 10 10 10 9 9 9 9 10 10 18 13 12 14 17 15 15 12 12 12 12 12 12 12 13 13 13 14 13 13 13 14 14 14 14 13 14 15 15 15 15 15 15 15 16 15 16 15 15 13 13 13 13 13 13 15 15 14 15 14 15 16 16 16 15 15 18 19 17
16 14 13 13 10 14 15 15 14 13 12 13 11 12 12 10 10 10 10 9 10 10 9 11 12 15 20 15 9 7 15 16 16 12 11 12 15 13 13 13 13 12 13 14 14 14 14 14 14 14 14 14 14 14 14 14 14 15 15 14 14 11 16 15 14 12 13 12 13 13 14 14 15 16 15 15 11 14 14 15 15 15 16 15 17
15 16 19 17 17 18 16 16 15 14 12 11 13 12 11 12 12 12 10 11 11 11 12 14 13 16 21 19 14 11 13 17 14 14 14 13 17 17 14 14 13 12 13 14 15 15 14 14 14 15 14 13 14 14 14 14 14 15 15 15 15 14 11 12 12 14 12 12 12 12 13 15 16 16 15 9 15 15 16 16 16 16 16 16 15
14 16 18 16 18 18 17 16 16 16 16 16 15 8 10 12 12 14 13 13 13 12 13 14 13 16 19 14 18 13 16 15 10 17 15 17 17 17 16 17 16 15 15 15 15 15 15 15 16 16 15 16 16 15 15 15 15 15 15 15 15 14 14 11 11 11 10 11 11 11 12 13 14 15 15 14 14 15 16 16 15 16 15 17 15
15 16 15 16 17 17 17 17 17 16 16 12 10 12 13 14 14 13 13 11 12 12 13 14 14 15 16 20 16 17 18 19 17 18 18 17 17 17 18 19 18 18 17 18 17 17 17 17 17 17 16 16 16 15 15 15 15 15 15 15 11 10 14 11 10 9 9 11 12 13 13 12 13 15 14 13 14 15 16 15 16 15 17 17 18
16 17 16 17 17 17 18 17 16 16 14 13 16 17 16 16 15 14 13 13 11 11 13 13 13 13 14 15 16 18 17 18 16 17 18 18 17 18 19 18 18 18 18 18 18 17 17 18 19 19 19 19 18 18 18 17 16 17 17 17 14 13 12 13 12 12 12 10 12 13 13 14 13 14 14 15 14 15 17 15 16 13 17 15 16
18 17 17 17 17 17 16 17 15 17 16 17 17 18 17 17 17 15 14 13 13 13 14 14 14 13 13 13 13 13 16 17 17 16 16 17 18 19 18 18 18 19 19 19 19 19 19 20 20 21 21 22 21 21 21 20 20 19 19 18 18 15 13 13 11 11 12 12 12 13 14 13 14 13 12 17 16 16 16 16 16 16 16 17 16
17 16 17 17 18 17 17 17 17 17 18 18 17 18 17 17 16 15 14 16 17 15 15 16 15 16 15 15 16 15 14 15 16 18 17 17 17 18 17 17 18 18 19 20 19 20 19 19 20 20 21 20 21 22 23 24 22 22 20 22 20 19 22 13 10 12 14 14 14 12 13 14 15 16 15 15 15 16 15 17 17 16 18 18 18
19 19 18 18 19 19 19 19 19 12 18 17 18 18 17 17 17 15 16 15 18 18 17 17 15 16 15 16 15 16 16 17 17 16 17 17 17 17 17 16 17 18 19 19 19 20 21 21 20 21 22 22 20 21 22 22 23 23 22 22 23 18 18 14 14 14 14 14 14 16 17 17 16 16 15 16 15 17 17 18 16 17 16 18 18
21 22 21 22 20 20 19 20 17 19 19 18 17 18 17 17 18 19 18 18 18 16 18 18 18 17 16 16 16 17 17 16 18 17 18 19 18 18 17 16 16 18 19 19 19 19 19 21 21 21 22 22 22 23 24 24 23 24 22 25 14 15 15 17 13 13 10 14 16 18 18 19 19 15 16 16 17 17 17 16 16 17 18 17 19
21 21 20 20 19 19 19 19 21 21 19 18 17 17 17 18 20 19 19 19 19 18 20 20 19 18 17 18 18 17 18 19 19 19 19 20 21 19 19 19 19 19 19 19 20 20 20 19 20 21 21 22 22 23 24 24 24 23 25 17 14 12 11 11 10 10 12 14 15 17 17 19 19 20 20 19 19 20 18 17 16 16 17 17 17
18 20 19 20 19 18 19 20 22 22 20 20 21 21 21 22 22 22 22 20 19 19 21 21 19 19 19 20 17 17 18 19 20 21 21 20 20 19 20 20 20 19 19 20 20 20 19 20 21 20 20 18 22 22 23 24 26 25 16 15 14 12 12 12 13 11 13 10 15 16 15 16 17 17 18 18 20 19 17 17 18 18 19 19 18
Wind_Speed
7 6 6 6 7 7 7 6 7 7 8 7 6 6 5 5 5 5 5 5 5 4 2 2 3 3 2 3 2 2 3 2 1 2 1 1 4 4 3 2 4 4 4 5 2 3 6 10 10 9 5 6 6 5 4 3 3 3 3 3 5 5 4 4 5 5 4 5 5 2 3 3 2 10 9 7 8 10 11 10 10 8 9 9 11
6 7 6 6 6 7 8 7 7 7 8 7 7 6 5 4 4 4 4 5 5 5 6 2 2 2 3 4 3 2 2 3 4 2 1 1 2 3 4 3 3 4 4 3 3 3 4 10 9 7 6 6 7 6 3 2 1 2 3 4 4 5 4 4 4 5 6 3 4 4 5 4 4 3 7 7 8 9 10 9 9 9 10 8 8
6 6 6 6 6 6 6 7 7 7 8 7 7 7 6 5 4 4 5 4 5 5 5 6 3 2 2 4 4 2 1 2 3 4 4 2 2 3 3 3 3 4 4 2 1 1 1 3 6 6 6 7 8 4 2 2 3 3 3 2 4 5 6 5 5 6 5 5 3 4 5 4 5 6 4 5 9 10 11 9 8 8 8 9 9
5 6 6 7 7 6 5 6 6 7 7 6 8 8 7 6 6 5 5 4 5 4 6 7 6 2 4 3 4 4 1 1 1 2 4 5 2 1 4 3 3 5 5 3 3 2 2 4 7 10 9 8 5 3 3 3 2 0 2 4 6 6 7 8 8 7 5 5 3 4 3 3 3 4 4 1 7 7 9 8 7 7 8 10 10
5 5 5 6 6 6 6 6 6 7 8 7 8 8 7 6 5 5 4 5 5 5 6 6 5 6 4 4 5 5 1 0 1 2 2 3 4 3 0 3 4 3 3 3 3 3 2 5 8 10 7 3 1 0 1 2 1 0 1 1 2 4 4 6 6 4 1 3 6 7 10 9 4 3 3 5 4 8 6 7 8 7 7 8 8
5 6 5 6 6 7 6 7 8 8 8 7 7 7 6 6 7 3 3 4 5 5 6 5 6 7 7 6 5 6 2 1 2 2 2 2 3 3 3 2 2 4 3 3 3 3 3 3 8 9 3 3 1 1 0 1 1 1 1 1 1 2 3 1 2 5 3 2 2 3 1 3 8 8 7 3 4 5 6 7 7 7 8 7 6
5 5 5 5 6 6 6 6 6 7 7 6 6 6 6 5 6 6 7 6 5 5 5 6 5 6 8 6 6 6 5 1 2 1 2 3 2 3 3 3 2 1 3 5 4 4 4 3 6 12 6 2 2 1 2 1 0 2 1 1 3 1 2 1 2 5 5 1 2 2 3 2 1 3 7 9 12 7 5 3 5 4 7 8 6
5 6 6 5 5 6 5 5 6 7 6 6 5 6 5 5 5 5 7 7 7 7 6 7 7 7 5 6 6 5 6 11 8 8 7 5 2 2 2 2 2 3 4 4 5 4 3 5 7 8 6 1 2 3 3 2 1 2 2 3 2 3 3 4 4 5 3 3 3 3 1 1 2 2 4 4 3 8 6 3 6 4 5 5 7
5 6 6 6 5 5 4 4 5 6 6 6 5 5 6 6 7 7 6 7 6 7 8 9 8 8 7 6 7 8 9 7 7 7 6 7 8 6 5 5 4 5 4 4 2 3 4 4 4 4 3 1 5 5 4 3 2 2 2 2 2 1 1 3 2 1 2 3 4 2 2 3 3 2 4 3 5 8 3 2 4 9 6 3 3
6 6 6 6 6 6 6 5 6 6 5 6 6 6 7 6 7 6 7 7 7 7 8 8 8 9 9 7 9 7 8 6 10 13 9 6 6 5 4 2 2 3 4 5 4 2 2 3 4 8 3 3 7 8 8 8 8 5 3 2 2 2 2 2 3 3 3 4 4 3 4 5 4 5 4 4 3 3 6 4 5 6 4 9 4
6 6 6 7 8 7 6 7 7 7 7 4 5 6 6 5 5 6 6 7 7 7 7 8 9 9 9 9 8 7 6 7 11 10 10 11 7 5 5 4 3 3 3 4 4 4 3 3 3 5 5 7 7 10 9 9 10 11 9 8 5 4 3 5 5 4 4 5 4 3 4 5 5 5 5 4 2 4 5 4 6 5 2 4 8
6 7 7 7 7 7 7 7 6 5 5 6 6 6 5 6 7 6 6 6 6 6 6 7 7 7 7 8 8 7 6 10 10 11 11 10 7 5 4 4 4 4 4 2 2 3 4 4 4 2 3 4 2 4 6 8 8 8 9 10 10 8 8 7 5 5 5 5 5 5 4 6 5 4 4 3 4 3 4 4 4 1 0 3 5
6 8 7 6 6 6 7 7 6 4 5 5 4 5 6 7 7 6 6 4 4 5 5 6 6 6 6 7 7 7 6 9 12 12 10 10 8 6 3 4 5 4 5 4 2 4 4 3 3 4 4 9 8 5 4 3 9 12 11 11 10 11 12 13 11 8 4 5 6 6 6 5 4 3 4 3 3 4 3 4 3 3 4 6 9
8 7 6 6 6 6 7 7 6 5 5 5 5 6 5 5 4 4 4 3 3 4 4 5 5 5 5 5 5 7 7 9 12 14 13 14 13 8 4 4 4 5 5 4 3 3 3 4 5 4 4 8 9 7 3 1 2 2 3 4 5 9 12 13 14 15 11 7 7 8 8 4 5 3 2 2 2 2 3 3 2 0 2 6 7
8 7 6 4 4 5 6 7 7 6 5 5 5 5 4 3 4 2 3 3 3 4 3 4 4 4 4 3 5 5 4 8 9 11 12 13 14 9 4 4 5 4 3 3 4 3 2 3 3 5 4 7 5 6 6 5 2 2 2 1 3 4 2 4 7 6 7 7 9 10 9 6 6 6 4 2 6 6 6 3 2 3 5 6 8
7 6 5 4 4 4 5 5 6 6 6 6 6 6 6 5 3 1 1 1 2 2 2 3 4 5 5 4 4 4 3 7 9 10 11 14 13 6 4 5 3 2 2 3 4 4 3 3 4 2 9 5 9 12 10 6 4 3 3 2 3 4 4 5 5 2 4 7 8 8 8 7 7 6 4 1 3 4 4 4 3 4 6 7 9
5 5 5 4 4 4 5 5 6 6 6 6 7 6 5 6 5 4 2 2 2 2 2 3 3 4 5 5 5 4 4 7 10 11 12 14 10 5 5 5 5 3 2 2 3 3 4 8 10 9 7 8 12 15 16 10 5 6 6 6 5 5 5 4 6 7 10 11 12 12 12 12 12 11 11 10 8 5 3 3 6 5 7 8 9
5 4 3 5 5 4 4 5 5 5 5 6 5 5 4 3 4 4 3 2 3 3 2 2 3 4 5 5 5 3 3 6 10 10 11 14 10 6 5 6 4 7 7 6 4 8 13 22 14 10 8 7 11 13 14 10 5 5 4 5 6 6 6 6 7 7 11 10 9 8 10 12 14 14 13 12 12 3 3 7 6 5 7 7 9
4 4 3 4 3 4 4 5 6 5 5 4 4 4 4 3 3 3 4 2 3 3 3 2 2 3 3 4 6 3 2 4 7 10 12 13 11 6 6 7 8 7 7 7 5 4 8 13 18 12 9 6 8 9 10 8 4 4 4 3 4 5 3 7 8 8 9 9 9 9 9 10 8 6 7 13 14 10 7 9 8 8 9 9 9
4 3 3 6 4 4 3 4 4 4 4 3 2 1 2 1 2 3 3 2 3 2 2 1 2 3 2 2 2 1 5 4 4 8 10 12 14 8 6 7 8 8 7 6 5 4 6 5 10 14 12 11 9 7 6 5 3 2 2 2 3 3 6 7 7 6 7 7 8 8 8 8 8 7 5 5 7 8 9 9 9 9 9 9 8
5 6 4 5 6 6 5 4 2 2 1 1 1 2 2 2 2 2 3 2 1 1 0 1 1 2 1 1 2 2 5 5 4 6 6 9 11 10 6 7 6 5 5 5 5 5 7 7 6 12 13 12 12 12 11 8 5 2 3 4 4 5 6 5 7 9 7 7 6 7 6 6 6 6 6 5 5 4 4 7 8 8 8 7 7
1 5 7 5 7 6 3 1 2 3 3 0 1 1 2 1 1 1 1 1 1 1 1 0 1 1 1 2 3 6 6 7 3 3 5 6 6 6 4 4 4 4 5 4 6 7 7 6 6 8 11 10 10 10 9 8 6 5 6 6 8 7 4 4 4 4 5 5 5 5 5 5 6 7 8 7 7 7 8 5 2 3 5 6 6
3 5 4 7 3 4 5 3 3 1 1 2 1 2 3 1 1 1 1 1 1 3 3 2 2 2 2 1 6 6 5 4 3 3 5 8 6 3 1 2 6 4 4 6 6 5 4 5 5 8 8 9 8 8 7 8 8 6 8 9 7 6 4 2 3 5 5 5 5 4 4 4 4 5 5 5 6 6 7 6 7 8 8 6 5
5 5 3 3 3 3 4 3 2 1 1 1 2 4 5 6 2 0 1 2 1 3 2 2 2 1 2 3 5 5 5 4 5 10 6 10 8 6 5 4 3 3 3 3 3 2 2 2 3 6 7 7 7 6 5 5 4 5 8 9 6 3 4 4 4 4 5 5 5 5 5 5 5 5 5 5 6 7 6 5 5 6 6 7 7
1 2 1 4 4 4 1 3 4 5 3 3 2 4 3 4 6 8 5 3 4 5 4 2 2 2 2 2 5 5 5 7 6 8 12 12 11 11 8 4 2 1 3 4 2 3 4 7 9 9 6 6 6 4 4 1 3 5 6 9 8 5 5 5 5 5 5 6 7 6 6 6 6 6 6 7 7 5 5 6 5 5 6 6 6
2 3 4 3 2 1 5 1 5 2 6 6 5 3 5 5 5 6 7 7 4 4 2 4 5 4 5 5 6 6 6 6 6 7 8 9 9 12 10 5 8 6 7 5 8 8 8 8 10 11 9 6 2 2 2 3 3 5 4 6 4 5 5 5 6 7 6 6 7 7 7 8 9 9 9 9 7 7 8 9 8 7 7 7 7
2 4 3 1 5 2 1 3 3 4 4 5 4 4 4 6 5 6 5 6 7 6 5 6 6 4 6 6 6 6 6 6 6 6 6 6 6 7 7 7 11 7 1 1 3 4 6 5 6 8 7 8 5 3 3 6 2 4 4 4 4 4 4 4 4 4 4 5 5 5 6 6 6 6 7 7 7 8 8 7 7 7 8 7 7
2 2 2 3 2 0 3 3 5 4 4 4 4 4 4 5 5 5 5 5 4 5 5 5 6 6 5 5 5 5 5 5 6 6 6 6 6 6 5 6 6 6 6 6 7 6 5 5 4 4 5 4 3 1 2 4 5 4 6 5 5 4 5 5 3 4 4 3 4 4 4 5 5 6 6 6 6 7 7 7 7 7 7 7 6
3 2 3 1 2 2 0 2 2 4 6 4 4 4 4 4 5 4 4 4 4 4 4 4 4 5 5 5 5 4 4 5 4 3 4 4 4 5 6 5 6 5 6 8 7 5 4 3 1 2 6 7 8 6 6 6 5 5 4 4 4 5 4 5 5 5 5 5 6 6 7 7 7 7 7 6 7 8 7 8 7 7 7 6 6
3 5 3 0 3 2 1 3 2 2 6 6 5 4 6 6 5 4 3 1 2 3 4 4 3 4 3 4 4 4 3 2 4 7 8 9 8 7 7 9 8 7 10 16 4 0 6 6 5 5 6 6 5 6 5 4 4 5 4 4 5 5 5 5 5 4 4 4 3 5 6 5 5 6 6 6 7 6 6 8 8 8 7 8 7
4 4 4 3 2 1 3 1 1 1 3 7 6 6 4 6 10 10 8 5 5 5 5 2 2 3 3 3 3 5 6 2 4 7 9 9 10 11 12 13 14 15 13 11 8 5 4 5 5 4 3 4 4 5 5 5 5 5 5 5 5 5 4 5 5 5 4 5 4 4 4 4 4 5 6 5 6 6 5 5 5 6 7 8 8
4 3 6 4 5 2 2 1 1 3 0 3 7 6 6 5 2 3 4 4 4 3 4 4 5 6 4 2 2 2 4 1 5 7 8 9 10 11 12 14 15 12 14 3 1 5 4 4 4 4 4 4 4 3 4 6 5 5 5 5 5 4 5 5 5 5 5 5 4 4 5 5 5 4 4 5 5 5 5 5 5 5 5 5 5
3 2 0 4 4 2 3 2 1 3 3 2 2 5 8 6 5 4 2 1 2 4 5 5 4 4 6 4 3 2 4 7 8 8 8 8 8 9 10 13 13 12 12 7 4 5 4 4 4 4 5 3 4 4 4 4 4 4 5 5 4 3 4 4 4 5 5 5 5 5 5 5 5 5 5 5 6 6 6 5 5 4 4 6 4
2 1 3 4 3 3 4 3 2 0 2 3 3 2 2 2 5 6 5 4 2 4 6 7 7 6 6 7 7 7 7 8 9 8 9 9 8 7 7 8 11 11 3 1 3 3 3 4 3 3 4 3 3 4 4 4 4 4 5 4 5 3 3 4 4 5 4 5 5 4 5 5 4 5 5 5 5 5 6 6 5 6 5 5 6
4 5 3 1 2 4 3 1 2 1 2 2 3 2 4 2 2 1 6 6 6 5 4 4 5 9 6 5 6 8 8 9 10 10 11 11 7 9 11 4 1 0 3 2 3 3 3 3 4 4 3 3 4 3 3 4 3 3 4 3 4 3 4 5 4 3 4 5 5 5 5 6 6 6 7 6 7 7 6 6 7 6 6 7 7
4 4 5 3 2 3 4 2 1 2 4 3 0 3 2 1 3 2 1 2 1 6 5 4 5 8 12 10 9 9 9 10 9 10 11 11 7 9 6 6 4 4 3 5 3 4 4 4 5 4 4 5 5 5 4 4 5 5 4 5 4 4 5 5 3 3 4 5 6 6 6 5 6 6 6 6 6 7 6 7 7 7 6 6 7
4 3 5 4 3 4 4 2 4 5 4 3 1 3 2 0 1 2 2 3 1 3 4 6 5 3 2 6 9 10 12 11 11 10 9 11 8 3 3 4 3 3 4 3 4 3 4 4 4 3 4 4 4 4 4 5 5 4 5 4 4 4 4 5 4 2 5 5 5 6 6 6 6 6 7 7 6 6 5 6 6 7 7 8 7
5 4 2 4 6 4 2 1 4 4 1 0 2 4 2 2 3 1 2 3 2 1 2 7 8 6 5 4 8 6 6 9 6 6 8 8 7 5 4 1 3 3 4 3 3 3 3 3 4 4 3 3 3 4 4 3 4 3 4 4 4 3 4 6 6 4 4 5 5 5 5 5 5 6 5 6 6 6 5 6 6 6 7 7 5
4 6 6 4 4 1 1 3 5 2 3 3 3 3 2 1 1 2 3 3 4 4 2 2 1 6 6 6 4 6 6 1 1 3 3 2 0 2 2 2 3 3 2 3 3 3 4 3 4 4 4 3 3 3 3 3 3 3 4 3 4 3 4 4 5 4 4 4 4 4 4 4 4 5 5 6 6 5 6 6 6 6 7 6 6
5 6 5 6 2 2 1 3 2 4 3 4 4 3 2 1 2 2 1 2 3 1 2 2 0 1 5 3 3 2 1 1 2 4 2 1 2 2 2 3 1 1 1 1 1 2 1 2 2 3 3 3 3 3 3 3 3 3 4 3 3 3 4 4 4 3 3 2 3 3 4 4 4 5 5 5 5 5 6 6 6 6 6 7 6
6 5 7 7 5 3 3 3 3 2 3 3 3 2 2 3 3 2 2 2 1 2 3 2 1 7 7 7 6 2 0 1 2 2 1 4 4 3 1 3 1 2 1 1 3 2 1 0 2 1 1 1 2 2 2 2 3 4 3 4 3 3 3 3 3 3 3 2 3 3 3 4 4 6 6 6 6 6 5 6 6 6 6 6 6
6 5 7 6 6 4 4 4 4 4 3 2 3 3 2 3 2 2 2 2 2 2 1 5 2 7 8 12 9 8 1 1 2 2 3 3 2 2 2 2 1 2 0 2 3 2 1 2 1 1 1 1 1 0 0 0 1 1 1 1 2 2 2 2 3 3 2 2 2 2 3 4 5 5 5 5 5 5 5 5 5 6 6 7 6
4 6 7 7 6 5 4 4 5 4 4 4 3 3 2 1 3 5 6 5 4 3 2 3 1 6 6 7 6 5 1 1 1 3 6 3 4 6 5 6 5 5 6 5 3 3 2 1 1 2 2 2 2 1 2 3 2 2 2 1 1 0 0 0 2 2 1 1 2 4 4 5 5 4 5 5 5 5 4 5 6 6 6 6 6
4 5 8 8 7 5 5 5 5 5 4 5 5 4 3 2 2 3 3 1 3 3 2 1 2 6 4 3 3 2 3 3 3 2 0 2 1 3 3 4 4 5 6 6 6 6 6 6 6 4 3 2 3 4 3 3 3 3 4 3 1 2 3 3 2 1 1 1 1 2 4 4 5 5 5 5 5 5 5 5 6 6 6 6 7
4 5 4 6 7 6 7 6 5 5 5 4 5 4 3 3 3 4 5 4 2 2 1 2 1 2 5 6 4 5 4 3 4 2 1 2 5 3 4 4 3 3 3 4 5 5 6 6 5 5 5 4 3 3 3 2 2 4 5 6 5 4 4 5 5 5 3 1 1 2 2 2 4 5 5 5 5 5 6 5 5 6 6 6 6
5 5 5 5 5 6 6 6 7 5 4 5 4 4 5 5 4 5 3 2 2 2 2 2 3 2 2 3 5 6 6 2 0 1 1 1 1 2 3 1 3 2 2 4 3 4 4 4 5 5 5 5 6 6 6 5 4 3 3 3 4 5 5 6 2 5 3 2 1 1 2 2 3 4 6 6 6 6 5 5 5 5 5 7 8
5 5 5 5 5 5 6 5 5 6 6 5 4 5 4 5 7 6 5 6 4 4 4 3 2 2 0 0 0 1 0 1 1 1 1 1 0 1 1 3 3 3 3 3 4 3 3 4 5 5 5 5 6 6 6 7 8 7 5 4 3 4 2 3 5 3 3 1 1 1 2 3 4 4 5 6 5 6 6 6 6 6 6 6 7
6 6 6 5 5 5 6 6 5 4 4 5 5 5 5 5 4 3 3 3 6 7 5 2 1 2 1 1 1 1 1 0 1 1 2 2 2 3 3 3 4 4 4 3 2 2 2 2 3 2 3 3 4 4 4 6 6 7 8 9 9 8 11 11 6 8 7 6 3 3 3 3 4 4 4 5 5 6 7 7 7 6 6 7 7
6 6 6 7 6 6 5 5 5 5 6 5 4 4 5 4 2 2 1 0 0 3 5 4 3 3 3 2 1 1 0 2 1 1 1 1 1 1 1 2 1 1 1 1 1 2 0 1 3 3 3 3 4 3 3 2 2 4 3 3 4 8 9 10 6 5 5 4 4 4 4 4 5 4 5 5 6 6 7 7 7 7 7 6 6
6 6 6 6 6 5 5 5 6 7 7 7 7 7 6 3 2 1 0 2 4 4 4 5 5 4 1 0 1 3 4 3 4 4 3 3 3 3 2 2 1 1 1 1 1 2 2 3 4 5 3 1 1 2 2 3 2 4 2 4 6 10 9 9 8 8 6 5 5 4 4 5 5 6 6 6 7 8 8 8 7 7 7 8 8
8 7 6 6 6 6 6 6 6 5 3 3 6 5 4 3 4 2 1 3 4 5 5 5 3 3 4 6 6 5 5 5 5 5 5 5 5 6 6 4 3 3 3 2 2 3 4 3 3 2 4 4 5 5 7 10 11 10 11 12 11 10 10 10 6 7 7 6 5 5 4 5 5 5 6 6 7 8 8 9 8 7 7 7 7
Wind_Direction
351 343 341 341 333 334 328 327 324 327 324 324 318 310 306 310 317 316 315 309 312 309 251 288 305 319 292 298 303 323 328 318 289 183 220 174 128 125 123 132 107 85 72 75 60 255 249 250 247 245 265 257 263 270 245 222 206 215 224 257 263 263 246 234 246 263 280 289 293 282 296 289 165 166 185 184 172 188 187 187 188 178 182 187 197
349 346 342 335 334 335 329 336 335 333 332 322 315 313 304 299 302 297 298 305 303 305 297 225 246 289 300 265 245 256 296 316 338 324 205 174 145 133 141 155 116 102 80 53 126 134 264 244 250 262 271 293 274 254 259 284 250 215 234 239 253 266 257 246 239 230 256 257 263 277 274 279 289 195 185 183 177 184 191 188 190 183 184 185 189
351 341 341 334 336 335 337 338 339 339 328 325 321 325 322 319 319 310 314 323 318 312 312 304 201 243 264 266 262 252 271 324 346 336 322 271 195 157 153 148 125 112 111 129 13 51 301 218 244 253 226 219 241 264 318 338 335 308 296 281 274 273 283 274 249 240 234 250 231 237 229 238 231 262 248 175 184 183 194 195 192 184 185 187 187
7 338 339 341 343 337 339 336 343 334 327 329 334 333 330 328 327 322 326 320 317 321 323 324 317 237 228 268 261 197 152 6 269 308 327 329 306 194 149 142 133 131 147 162 147 151 246 265 229 220 235 228 216 213 204 206 205 251 318 335 334 330 324 321 342 325 306 278 249 243 244 248 248 221 237 220 161 193 196 201 201 196 185 187 195
6 351 341 349 341 339 342 343 338 339 333 336 340 336 336 328 312 327 343 333 331 339 326 328 323 322 313 277 283 278 215 121 272 254 278 300 312 328 329 151 148 154 146 157 175 157 196 252 260 229 198 189 168 249 348 358 8 353 3 18 322 314 344 355 343 319 352 6 333 336 343 328 307 275 227 216 179 184 206 205 202 204 204 194 192
6 352 348 344 345 349 354 350 341 338 332 339 328 327 325 337 326 326 321 349 2 346 342 333 337 321 311 303 291 278 228 154 258 248 246 263 279 292 305 298 169 163 171 183 179 178 188 221 273 262 197 179 146 153 164 191 201 278 309 111 154 125 99 52 298 286 262 193 177 273 306 296 329 326 321 307 249 205 208 216 204 198 202 205 211
13 8 350 355 347 354 353 350 328 326 336 332 318 323 325 324 330 359 358 1 9 355 349 338 341 340 318 322 317 329 340 293 340 334 237 229 260 277 286 281 281 197 173 173 201 202 187 226 285 285 274 139 150 138 127 110 199 248 140 238 272 341 80 115 174 239 263 259 243 218 274 281 164 292 315 337 328 301 249 284 258 237 195 197 205
27 13 355 358 358 353 344 336 327 330 330 314 308 304 317 354 350 20 7 2 7 1 348 347 342 323 319 317 327 318 359 38 26 17 360 337 268 240 253 289 298 275 244 211 189 197 206 208 222 230 247 180 146 133 145 154 193 288 287 238 229 218 191 222 232 231 240 244 237 235 201 255 308 281 305 333 353 319 315 290 279 262 245 218 196
23 24 5 359 350 347 342 340 314 327 322 322 337 341 357 7 358 24 14 11 12 3 358 353 348 336 334 328 340 30 52 38 31 5 351 360 357 12 4 345 329 310 296 286 252 200 204 238 249 267 279 204 180 172 167 173 168 189 205 209 224 158 175 211 256 228 225 242 262 219 219 244 234 268 264 251 225 239 293 357 310 303 288 266 245
39 25 16 359 341 345 347 338 329 320 328 335 347 356 2 10 13 24 21 16 10 4 7 9 353 344 343 11 55 47 39 42 16 18 16 6 350 345 342 335 343 322 300 281 273 249 230 227 235 255 276 248 211 199 188 191 196 203 230 240 232 230 224 236 231 233 242 248 244 230 226 241 221 200 227 236 232 290 298 301 280 283 355 303 317
52 40 29 0 351 347 347 341 337 353 338 345 355 359 1 14 23 15 21 21 18 21 4 11 17 21 35 50 50 52 42 23 10 15 18 15 9 346 326 322 295 280 261 260 272 268 240 240 239 237 226 235 223 206 197 198 199 206 208 218 232 221 217 227 230 237 238 238 240 225 230 245 231 201 217 232 215 236 259 255 264 282 313 334 301
37 37 28 12 359 354 345 339 336 334 334 349 352 350 10 17 17 6 23 15 21 21 23 20 26 29 30 42 44 42 40 15 16 15 13 11 8 338 308 294 295 288 289 266 258 255 255 250 245 223 201 224 227 187 190 201 214 222 222 229 233 239 238 223 229 232 227 245 248 237 233 237 238 192 215 212 234 235 243 266 283 275 39 249 275
52 52 32 7 6 354 338 324 316 341 345 335 342 8 20 22 18 6 13 19 23 41 36 27 31 39 44 47 46 34 31 9 12 11 9 2 360 335 315 307 304 293 290 287 321 322 331 326 294 236 211 206 203 207 218 233 185 191 211 223 230 223 227 240 240 235 255 251 251 253 240 258 263 224 182 201 162 217 244 244 223 152 165 208 221
61 50 43 14 9 356 335 338 343 339 337 353 4 23 21 26 28 6 356 25 37 39 57 43 32 56 53 50 49 38 25 3 5 6 1 355 350 342 300 306 288 285 288 302 309 312 336 339 322 334 348 34 16 359 341 214 206 219 207 205 219 215 219 227 229 232 232 235 241 248 253 253 267 276 290 138 161 250 282 241 240 0 235 248 266
62 44 38 20 15 359 346 354 347 348 354 2 6 10 26 34 44 20 351 23 34 34 50 57 54 56 73 71 60 43 23 355 6 7 3 354 343 325 290 284 277 265 263 293 316 317 300 288 303 292 53 66 22 347 26 350 317 216 200 282 295 304 273 213 207 205 208 224 232 244 257 259 263 269 274 153 198 211 216 244 306 258 254 274 286
50 36 19 39 19 12 354 346 343 344 360 7 12 9 2 13 28 355 327 79 59 58 61 69 63 54 52 67 60 57 31 6 4 10 5 2 343 320 317 305 289 292 314 332 320 313 306 289 280 17 70 58 14 17 12 356 358 351 320 282 274 269 272 288 324 283 214 200 215 231 245 249 247 255 255 231 152 221 265 271 263 266 281 286 277
41 39 26 24 38 13 7 2 3 353 3 4 358 356 10 360 352 334 347 58 63 44 52 69 62 46 41 29 29 57 24 6 4 10 5 4 353 329 328 327 313 320 326 243 239 273 13 31 46 52 47 37 12 18 8 7 19 6 0 341 329 326 313 302 295 331 344 318 298 288 282 283 282 280 278 257 233 223 219 235 243 227 236 251 262
32 43 38 28 18 23 10 9 360 356 354 1 355 337 359 352 328 321 316 49 51 25 25 74 76 62 44 39 26 47 34 22 9 2 5 6 360 342 326 325 332 32 0 353 1 69 65 62 57 53 45 28 17 21 11 2 22 13 355 347 334 329 322 5 4 338 348 353 337 309 290 287 290 289 285 282 278 271 212 250 253 248 255 251 260
10 29 80 102 62 27 10 13 1 4 6 360 349 350 351 328 324 326 318 47 49 21 348 40 69 79 75 87 40 36 110 53 10 3 5 13 10 343 350 10 19 8 360 356 350 73 85 69 64 64 58 47 38 33 18 4 15 13 0 324 314 301 344 10 344 347 339 336 335 339 330 320 306 289 271 260 255 244 221 237 248 241 247 250 254
349 41 66 110 116 63 51 20 8 0 354 344 345 336 288 326 324 326 307 28 48 46 332 0 57 91 109 97 97 358 86 72 23 9 14 12 14 6 13 23 12 360 350 341 343 352 85 75 58 35 35 36 43 57 60 29 24 346 341 306 297 324 2 329 329 336 325 315 310 314 307 302 299 289 267 250 246 239 229 222 228 238 245 244 242
33 1 346 88 80 73 34 18 357 309 330 306 327 332 325 338 346 6 341 30 81 129 262 297 108 105 127 121 156 107 87 102 59 25 16 23 19 15 20 23 3 349 330 330 339 15 37 22 46 26 20 19 21 22 20 17 6 323 22 10 355 311 318 317 318 321 305 299 295 299 303 311 314 313 318 320 305 288 239 225 232 234 239 246 263
51 75 331 43 86 101 122 167 266 259 277 300 174 233 235 160 142 2 288 184 164 124 90 31 101 118 186 182 107 100 82 82 89 38 19 30 32 20 24 20 11 320 326 2 6 18 22 14 30 15 12 15 19 19 13 4 351 37 6 332 322 356 342 298 285 280 282 299 300 297 302 308 314 316 316 313 314 319 326 324 288 247 241 240 232
1 82 22 5 44 115 157 208 192 271 339 288 2 49 334 334 106 164 245 242 182 159 157 178 150 154 193 107 100 114 112 92 95 89 33 16 14 23 328 301 339 316 360 15 13 358 12 7 20 12 4 356 358 356 4 8 35 21 350 350 349 340 304 323 314 308 308 312 317 306 304 298 293 295 297 305 305 310 322 330 327 322 312 301 261
21 23 92 2 355 30 41 338 3 78 194 26 1 71 11 346 6 242 237 315 289 146 147 111 102 90 67 86 121 121 136 141 88 59 32 11 357 349 336 319 291 341 328 285 315 17 343 10 351 331 330 331 341 357 357 3 46 34 23 21 12 2 355 358 330 322 315 302 294 301 304 312 305 304 310 330 334 323 312 308 318 328 330 323 320
47 300 119 99 357 339 129 114 2 319 331 96 36 51 60 15 1 352 350 43 23 8 35 37 53 67 99 91 93 90 62 43 36 38 26 4 356 353 352 360 323 178 290 274 31 6 348 329 325 313 315 312 286 249 234 212 33 36 50 45 39 36 19 12 1 348 355 358 359 347 343 343 340 336 333 316 307 316 328 324 328 331 319 313 310
116 22 325 104 85 79 336 130 134 26 355 13 31 45 62 44 14 1 359 356 19 15 8 45 37 16 18 44 54 65 54 41 26 15 16 3 355 343 348 342 331 287 234 307 321 320 313 302 298 298 299 274 281 103 104 109 31 21 84 72 43 45 32 25 20 19 14 358 355 354 348 346 344 344 344 344 343 343 351 349 344 333 330 318 314
273 118 324 328 137 119 22 3 344 86 34 24 26 20 56 61 37 22 12 5 1 1 18 27 33 28 20 23 42 50 48 39 21 8 13 2 357 345 1 7 357 10 145 356 348 327 310 293 258 273 284 305 316 317 264 182 143 38 31 49 34 60 52 37 34 33 24 3 351 344 345 338 328 348 357 351 359 358 355 344 345 336 329 328 318
324 351 219 225 62 332 168 222 250 101 75 63 37 28 34 71 61 40 23 12 7 8 9 32 21 18 34 23 24 39 37 31 20 0 354 356 347 344 354 2 1 359 341 346 329 309 292 283 290 274 265 259 258 226 0 56 66 58 39 32 26 31 47 26 40 45 26 2 337 332 339 341 346 360 357 359 358 348 339 351 342 336 338 331 331
228 256 252 232 121 208 117 107 17 108 120 95 73 47 25 43 81 74 43 37 29 16 13 41 19 354 44 35 22 30 34 17 4 345 308 308 311 331 345 348 338 319 311 315 314 292 228 247 203 65 41 36 32 26 22 20 23 37 48 38 35 22 23 22 14 18 16 8 359 1 356 349 356 3 352 356 4 344 350 356 346 344 340 343 342
217 227 265 289 98 311 211 144 181 137 124 127 114 76 42 48 47 100 109 68 97 37 31 61 23 343 14 66 33 32 15 6 323 324 327 327 325 314 296 294 293 294 313 325 303 230 55 50 47 41 41 37 29 26 16 21 14 20 17 35 39 24 26 25 8 358 12 15 350 14 0 348 353 359 353 358 350 340 0 9 349 351 348 348 344
229 226 178 109 88 73 294 91 337 133 129 136 139 130 121 58 39 46 77 94 62 35 43 45 351 359 6 63 66 62 113 180 313 320 323 326 325 327 328 330 333 335 353 5 351 36 38 53 35 41 52 51 40 16 22 14 12 15 12 13 43 33 24 23 351 348 357 2 348 29 360 349 346 355 354 350 340 336 0 359 355 355 1 352 355
253 288 110 131 140 182 288 73 186 282 234 134 147 158 145 140 124 28 30 35 13 10 359 340 336 346 0 30 5 181 175 136 324 318 317 321 325 326 327 329 324 329 329 321 340 30 36 39 36 39 28 35 34 29 38 10 21 14 10 2 17 31 25 9 355 0 346 351 346 26 358 341 348 349 345 330 326 342 353 352 355 357 351 352 346
242 298 168 135 140 193 253 156 228 198 174 196 206 167 159 161 155 164 211 239 246 283 311 304 306 293 317 314 248 233 272 287 299 299 303 304 310 314 319 312 311 322 349 353 51 33 31 46 32 26 32 27 17 29 17 24 16 28 23 3 359 27 29 13 8 358 343 344 350 12 356 342 348 349 350 344 354 345 340 343 343 349 345 341 339
287 308 15 22 321 190 203 192 202 86 62 10 2 8 64 99 151 160 156 169 238 279 255 249 257 298 289 271 282 276 269 277 286 288 289 294 303 323 322 292 291 283 174 288 341 58 50 16 51 34 36 31 28 17 25 15 11 21 25 356 352 0 40 22 18 349 341 344 356 360 354 340 356 352 341 347 349 335 331 343 347 347 346 342 333
207 113 114 261 309 319 317 227 130 286 68 160 181 217 129 147 279 161 162 174 182 181 189 208 219 216 230 242 238 246 261 273 284 294 299 298 324 332 312 289 298 260 151 233 17 17 56 36 36 32 34 28 33 25 20 19 9 12 28 352 352 357 39 22 12 342 350 354 358 356 359 352 355 344 349 352 348 341 337 348 349 342 338 340 340
230 216 156 176 239 268 275 275 231 155 174 215 272 27 82 163 230 161 140 267 175 163 177 173 176 201 222 252 269 271 263 257 264 276 284 292 322 359 353 329 26 23 39 65 21 4 19 54 35 33 19 25 29 15 17 3 15 0 18 4 353 4 26 347 356 343 18 7 1 352 357 359 351 352 352 350 343 339 341 347 337 330 339 339 334
211 229 147 175 194 202 246 280 67 57 33 13 327 157 216 218 7 307 275 118 55 329 148 144 139 125 205 246 248 257 252 249 250 259 280 290 307 314 274 291 7 39 15 47 38 351 22 23 44 30 25 17 35 16 14 6 1 9 5 346 352 20 18 333 326 2 24 14 4 354 358 353 353 354 353 342 330 327 338 338 329 329 336 325 327
223 242 241 176 179 199 215 197 122 135 155 173 270 283 224 186 203 289 295 100 75 279 279 156 168 159 175 208 200 206 242 239 245 297 277 282 293 258 254 13 33 55 24 23 38 16 20 6 40 27 29 18 37 34 15 1 357 6 355 340 4 6 20 2 353 18 30 27 9 351 349 350 350 345 345 336 321 327 339 337 329 327 323 323 331
214 111 126 36 22 13 221 191 143 189 176 191 231 244 220 254 203 198 226 193 172 207 197 244 168 148 163 165 171 208 245 15 232 248 221 188 127 23 28 21 42 44 39 23 29 29 28 4 30 17 9 8 47 34 24 15 349 350 336 5 358 346 13 5 4 7 28 28 4 341 339 338 345 338 332 322 322 332 327 320 320 322 319 320 324
205 179 162 157 200 187 292 299 220 171 181 199 214 217 162 237 241 239 216 263 218 213 26 337 81 258 125 94 77 39 349 42 344 318 352 127 204 216 153 118 134 250 153 130 96 80 12 54 33 22 352 16 28 22 22 17 353 336 350 1 354 6 11 4 360 16 25 17 344 336 333 338 336 332 320 314 313 315 310 313 318 318 316 315 314
211 189 155 170 190 198 206 239 271 229 196 200 237 204 197 194 211 276 324 317 120 252 181 262 203 100 121 130 147 138 126 52 301 305 304 264 250 248 120 51 52 265 220 167 158 152 162 145 131 104 350 357 50 35 26 2 13 360 348 334 5 16 5 357 358 16 352 345 330 324 325 343 329 325 312 301 303 309 310 314 318 318 313 306 310
208 158 152 163 173 192 197 207 231 257 274 241 205 228 201 192 216 248 221 288 30 24 243 232 68 126 133 147 166 183 185 22 298 266 264 288 51 49 324 282 53 3 256 53 27 351 64 70 44 172 172 231 89 72 216 235 56 358 307 327 351 352 6 358 359 329 314 318 308 332 341 321 305 285 283 299 310 307 313 319 315 312 308 307 312
222 143 164 153 176 193 207 197 210 223 210 223 241 229 250 239 198 208 196 163 231 236 355 326 114 145 172 187 163 194 247 264 213 247 255 311 10 22 25 20 352 354 9 23 24 353 23 47 335 347 19 10 331 353 349 309 267 250 231 199 214 179 81 313 283 281 293 332 1 339 320 303 297 300 307 307 304 306 310 314 310 304 301 314 320
220 166 168 163 179 181 196 215 213 213 212 201 211 213 207 216 246 304 321 275 210 220 194 270 96 160 167 117 132 205 227 237 248 254 278 318 103 98 69 18 9 18 17 14 7 8 5 359 1 356 359 346 359 353 311 298 305 300 309 296 244 196 190 201 192 207 104 40 319 307 305 308 311 316 311 305 308 317 314 308 301 305 314 313 309
202 201 198 177 175 179 185 203 223 209 215 208 191 210 207 223 227 215 217 233 216 200 244 224 250 155 165 173 185 204 219 229 234 286 0 28 4 345 85 85 55 40 35 11 15 4 2 354 349 345 336 328 310 275 274 289 336 333 329 332 320 281 225 212 192 163 137 134 250 270 287 305 307 302 297 303 312 307 298 290 292 301 305 303 307
212 209 196 203 192 185 186 188 193 217 211 205 212 204 202 205 222 239 232 232 258 285 250 242 223 212 193 181 179 191 207 216 353 45 46 64 59 353 320 306 110 79 78 71 42 15 347 352 347 345 345 345 341 343 338 330 304 283 273 281 307 315 312 294 166 113 121 135 169 254 271 297 300 306 304 300 292 288 284 288 290 294 297 298 294
197 208 207 203 198 193 191 200 198 196 205 215 211 210 211 208 205 210 199 202 203 217 231 232 275 301 256 159 196 246 196 195 192 131 107 105 272 293 40 54 53 73 63 37 44 17 13 6 0 345 344 349 349 344 346 345 339 327 312 296 279 308 346 58 103 131 117 100 80 6 353 314 301 295 299 294 291 290 296 295 293 290 287 285 285
203 203 207 204 203 208 197 190 203 204 217 206 209 211 214 231 231 177 158 184 210 224 234 223 202 251 234 247 232 267 301 304 127 118 73 22 22 56 40 30 47 45 59 55 18 12 49 14 316 320 352 357 354 352 339 343 337 0 9 23 24 22 16 7 14 35 36 33 17 331 298 290 282 283 287 291 293 293 292 291 288 282 277 277 277
210 211 207 203 206 202 207 200 204 215 217 220 221 212 207 200 180 108 77 103 184 183 198 222 219 214 225 218 221 272 102 106 91 88 81 49 37 54 74 92 104 103 111 154 209 231 204 246 253 228 212 205 217 224 243 249 320 50 43 43 43 54 56 52 55 39 17 354 346 334 326 322 317 305 301 296 294 292 286 285 285 287 285 285 286
208 211 217 207 201 203 206 213 216 215 214 208 206 210 208 173 121 104 285 288 284 271 245 221 210 193 164 5 49 88 88 72 52 37 34 30 27 35 34 34 34 13 314 263 255 269 274 244 246 245 240 243 337 323 328 303 113 88 69 52 49 54 47 48 53 32 15 353 348 325 320 306 309 302 296 292 292 290 287 283 283 286 289 289 287
200 206 212 208 204 200 204 217 221 237 255 240 203 181 147 120 107 125 226 259 258 248 242 239 211 160 101 75 71 58 52 49 49 49 52 38 20 6 1 2 352 344 333 337 327 305 277 273 305 2 24 10 2 357 15 30 45 38 42 40 43 37 35 26 27 21 13 347 320 315 306 301 295 294 291 288 284 283 280 283 280 281 280 282 283